Tracking 29892 objects as of 21-Nov-2024
HD Live streaming from Space Station
objects crossing your sky now

STARLINK-31080

Track STARLINK-31080 now!
10-day predictions
STARLINK-31080 is classified as:


NORAD ID: 58603
Int'l Code: 2023-200Q
Perigee: 565.3 km
Apogee: 567.1 km
Inclination: 43.0 °
Period: 95.8 minutes
Semi major axis: 6937 km
RCS: Unknown
Launch date: December 19, 2023
Source: United States (US)
Launch site: AIR FORCE EASTERN TEST RANGE (AFETR)
Your satellite tracking list
Your tracking list is empty




NASA's NSSDC Master Catalog

Two Line Element Set (TLE):
1 58603U 23200Q   24325.96281516 -.00000894  00000-0 -51116-4 0  9994
2 58603  43.0022 224.3362 0001316 260.8340  99.2353 15.02534216 52075
Source of the keplerian elements: AFSPC